This is the latest recevied weather packets stored in our database for station/object W4TBD-13. If no packets are shown the sender has not sent any weather packets the latest 10 day(s).
| Time | Temp. | Humidity | Pressure | Rain* | Wind** | Luminosity | Snow |
|---|---|---|---|---|---|---|---|
| 1777422605 | 16.11° C | 82% | 1006.2 hPa | 0 mm | - | 0 W/m² | - |
| 1777422005 | 16.11° C | 81% | 1006.4 hPa | 0 mm | - | 0 W/m² | - |
| 1777420804 | 16.67° C | 79% | 1006.4 hPa | 0 mm | - | 0 W/m² | - |
| 1777418705 | 17.78° C | 77% | 1007.1 hPa | 0 mm | - | 0 W/m² | - |
| 1777418405 | 17.78° C | 76% | 1007 hPa | 0 mm | - | 0 W/m² | - |
| 1777417506 | 17.78° C | 76% | 1007.4 hPa | 0 mm | - | 0 W/m² | - |
| 1777417205 | 17.78° C | 75% | 1007.3 hPa | 0 mm | - | 0 W/m² | - |
| 1777416605 | 18.33° C | 75% | 1007.4 hPa | 0 mm | - | 0 W/m² | - |
| 1777416006 | 18.33° C | 74% | 1007.5 hPa | 0 mm | - | 0 W/m² | - |
| 1777415106 | 18.33° C | 73% | 1007.4 hPa | 0 mm | - | 0 W/m² | - |
| 1777413605 | 18.33° C | 72% | 1007.1 hPa | 0 mm | - | 0 W/m² | - |
| 1777412404 | 18.33° C | 72% | 1007.3 hPa | 0 mm | - | 0 W/m² | - |
| 1777405205 | 18.89° C | 68% | 1008.1 hPa | 0 mm | - | 0 W/m² | - |
| 1777404604 | 18.33° C | 68% | 1008.5 hPa | 0 mm | - | 0 W/m² | - |
| 1777399504 | 18.89° C | 61% | 1009.2 hPa | 0 mm | - | 0 W/m² | - |
| 1777395905 | 16.67° C | 67% | 1009.5 hPa | 0 mm | - | 135 W/m² | - |
| 1777395005 | 16.11° C | 69% | 1010.3 hPa | 0 mm | - | 170 W/m² | - |
| 1777391704 | 13.33° C | 76% | 1011.8 hPa | 0 mm | - | 98 W/m² | - |
| 1777388104 | 11.67° C | 79% | 1009.6 hPa | 0 mm | - | 49 W/m² | - |
| 1777384204 | 11.11° C | 75% | 1011.1 hPa | 0 mm | - | 48 W/m² | - |
| 1777383005 | 11.11° C | 76% | 1011.3 hPa | 0 mm | - | 30 W/m² | - |
| 1777381804 | 10.56° C | 79% | 1012.2 hPa | 0 mm | - | 69 W/m² | - |
| 1777379405 | 8.89° C | 87% | 1013.3 hPa | 0 mm | - | 14 W/m² | - |
| 1777377905 | 8.89° C | 88% | 1014.2 hPa | 0 mm | - | 12 W/m² | - |
| 1777377005 | 8.33° C | 89% | 1013.8 hPa | 0 mm | - | 10 W/m² | - |
* Rain latest hour (hover to see other rain measurements)
** Current wind speed in m/s (hover to see current wind gust speed)